This demonstration page uses our WeatherBlox Daily Observations layout. Learn more.

Left ArrowRight Arrow

39.01783, -85.05884

Hourly Observations for May 4, 2021

Temp ( °F °C ) Dew Point ( °F °C ) Humidity (%) Winds ( mph kmh ) Pressure ( in mb ) Visibility ( mi km ) Precip ( " mm )
12:52 am 00:52 Mostly Clear 63 17.2 59 15 87 87 S 10 17 29.69 1005 10 16.0934 0 0
1:52 am 01:52 Mostly Clear 65 18.3 60 15.6 84 84 S 10 17 29.66 1004 10 16.0934 0 0
2:52 am 02:52 Cloudy 66 18.9 61 16.1 84 84 WNW 3 6 29.71 1006 10 16.0934 0 0
3:52 am 03:52 Cloudy 64 17.8 61 16.1 90 90 S 5 7 29.7 1006 10 16.0934 0 0
4:52 am 04:52 Mostly Cloudy 63 17.2 60 15.6 90 90 SSE 6 9 29.64 1004 10 16.0934 0.001 0.001
5:52 am 05:52 Partly Cloudy 64 17.8 61 16.1 90 90 Calm 29.67 1005 10 16.0934 0 0
6:52 am 06:52 Mostly Cloudy 63 17.2 61 16.1 93 93 Calm 29.7 1006 7 11.26538 0 0
6:54 am 06:54 Cloudy 63 17.2 61 16.1 93 93 Calm 29.71 1006 7 11.26538 0 0
7:05 am 07:05 Cloudy with Light Rain 64 17.8 61 16.1 90 90 Calm 29.71 1006 3 4.82802 0.001 0.001
7:10 am 07:10 Cloudy with Light Rain 64 17.8 61 16.1 90 90 Calm 29.7 1006 8 12.87472 0.001 0.001
7:52 am 07:52 Cloudy with Mist and Fog 63 17.2 61 16.1 93 93 S 5 7 29.7 1006 6 9.65604 0.001 0.001
8:08 am 08:08 Cloudy with Nearby Thunderstorms 64 17.8 61 16.1 90 90 S 5 7 29.71 1006 6 9.65604 0 0
8:34 am 08:34 Mostly Cloudy with Nearby Thunderstorms 66 18.9 63 17.2 90 90 S 12 19 29.73 1007 5 8.0467 0 0
8:52 am 08:52 Cloudy with Light Thunderstorms 66 18.9 63 17.2 90 90 S 9 15 29.72 1006 5 8.0467 0.001 0.001
9:07 am 09:07 Cloudy with Thunderstorms 66 18.9 63 17.2 90 90 SSW 18 30 29.73 1007 2.5 4.02335 0.03 0.762
9:20 am 09:20 Cloudy with Heavy Thunderstorms 66 18.9 63 17.2 90 90 SSW 22 35 29.75 1007 1.75 2.816345 0.17 4.318
9:23 am 09:23 Cloudy with Heavy Thunderstorms 66 18.9 62 16.7 87 87 SW 25 41 29.76 1008 0.75 1.207005 0.25 6.35
9:30 am 09:30 Cloudy with Heavy Thunderstorms 65 18.3 62 16.7 90 90 SW 15 24 29.77 1008 0.75 1.207005 0.48 12.192
9:38 am 09:38 Cloudy with Heavy Thunderstorms 65 18.3 62 16.7 90 90 SSW 15 24 29.77 1008 1.5 2.41401 0.68 17.272
9:47 am 09:47 Cloudy with Nearby Thunderstorms 64 18 63 17 94 94 SSW 14 22 29.78 1009 2.5 4.02335 0.73 18.542
9:52 am 09:52 Cloudy with Nearby Thunderstorms 65 18.3 62 16.7 90 90 SSW 13 20 29.78 1008 2.5 4.02335 0.75 19.05
10:02 am 10:02 Cloudy with Rain 65 18.3 62 16.7 90 90 SW 15 24 29.79 1009 2.5 4.02335 0.04 1.016
10:07 am 10:07 Cloudy with Rain 65 18.3 62 16.7 90 90 SSW 14 22 29.79 1009 2.5 4.02335 0.05 1.27
10:52 am 10:52 Cloudy with Rain 65 18.3 62 16.7 90 90 SW 13 20 29.81 1009 2.5 4.02335 0.23 5.842
11:05 am 11:05 Cloudy with Light Rain 65 18.3 61 16.1 87 87 SW 13 20 29.81 1010 3 4.82802 0.03 0.762
11:52 am 11:52 Cloudy with Light Rain 65 18.3 62 16.7 90 90 E 13 20 29.67 1005 7 11.26538 0.04 1.016
12:00 pm 12:00 Mostly Cloudy with Light Rain 65 18.3 62 16.7 90 90 E 7 11 29.67 1005 9 14.48406 0.01 0.254
12:40 pm 12:40 Cloudy 68 20 63 17.2 84 84 SSW 8 13 29.69 1005 10 16.0934 0.01 0.254
12:52 pm 12:52 Cloudy 68 20 62 16.7 81 81 SW 10 17 29.71 1006 10 16.0934 0.01 0.254
1:52 pm 13:52 Cloudy 68 20 62 16.7 81 81 SW 10 17 29.72 1006 10 16.0934 0 0
2:29 pm 14:29 Cloudy 69 20.6 61 16.1 76 76 SW 9 15 29.73 1007 10 16.0934 0 0
2:52 pm 14:52 Cloudy 69 20.6 62 16.7 78 78 SSW 9 15 29.73 1007 10 16.0934 0 0
3:03 pm 15:03 Cloudy 69 20.6 61 16.1 76 76 SW 7 11 29.74 1007 10 16.0934 0 0
3:27 pm 15:27 Cloudy 69 20.6 61 16.1 76 76 SSW 8 13 29.72 1006 10 16.0934 0.001 0.001
3:52 pm 15:52 Mostly Cloudy 72 22.2 62 16.7 71 71 WSW 9 15 29.7 1006 10 16.0934 0.001 0.001
4:52 pm 16:52 Cloudy with Light Rain 67 19.4 62 16.7 84 84 WNW 9 15 29.69 1006 7 11.26538 0.01 0.254
5:13 pm 17:13 Cloudy with Light Rain 66 18.9 62 16.7 87 87 NNW 14 22 29.7 1006 6 9.65604 0.001 0.001
5:32 pm 17:32 Cloudy with Light Rain 65 18.3 62 16.7 90 90 NNW 8 13 29.71 1006 9 14.48406 0.03 0.762
5:52 pm 17:52 Cloudy 65 18.3 62 16.7 90 90 NNW 14 22 29.71 1006 10 16.0934 0.03 0.762
6:08 pm 18:08 Cloudy 65 18.3 61 16.1 87 87 NNW 13 20 29.73 1007 10 16.0934 0 0
6:52 pm 18:52 Cloudy 63 17.2 59 15 87 87 NNW 16 26 29.73 1007 10 16.0934 0.001 0.001
7:52 pm 19:52 Cloudy 61 16.1 57 13.9 87 87 N 12 19 29.74 1007 10 16.0934 0.001 0.001
8:43 pm 20:43 Cloudy 59 15 55 12.8 87 87 N 8 13 29.77 1008 10 16.0934 0 0
8:52 pm 20:52 Cloudy 59 15 55 12.8 87 87 N 10 17 29.77 1008 10 16.0934 0 0
9:30 pm 21:30 Cloudy with Light Rain 59 15 54 12.2 83 83 N 12 19 29.78 1009 10 16.0934 0.001 0.001
9:52 pm 21:52 Cloudy 59 15 53 11.7 81 81 N 13 20 29.77 1008 10 16.0934 0.001 0.001
10:52 pm 22:52 Cloudy 58 14.4 53 11.7 84 84 N 12 19 29.78 1008 10 16.0934 0 0
11:52 pm 23:52 Cloudy 58 14.4 53 11.7 84 84 N 9 15 29.78 1008 10 16.0934 0 0

Powered by AerisWeather